| time (UTC) | temp C | wind direction | speed KPH | gust KPH | rain 1hr cm | rain 24hr cm | rain mn cm | humidity % | barometer mb |
| 20260504024559 | 8 | 0 | 1.6 | 3.2 | 0.00 | 0.99 | 0.00 | 92 | 1013.5 |
| 20260504023058 | 8 | 0 | 0.0 | 4.8 | 0.00 | 0.99 | 0.00 | 92 | 1013.3 |
| 20260504021559 | 8 | 90 | 0.0 | 4.8 | 0.00 | 0.99 | 0.00 | 91 | 1013.2 |
| 20260504020057 | 8 | 58 | 0.0 | 3.2 | 0.00 | 0.99 | 0.00 | 92 | 1013.4 |
| 20260504014616 | 8 | 102 | 0.0 | 1.6 | 0.00 | 0.99 | 0.00 | 91 | 1013.4 |
| 20260504013104 | 8 | 0 | 0.0 | 0.0 | 0.00 | 0.99 | 0.00 | 91 | 1013.3 |
| 20260504011603 | 8 | 262 | 0.0 | 1.6 | 0.00 | 0.99 | 0.00 | 91 | 1013.3 |
| 20260504010101 | 8 | 117 | 1.6 | 6.4 | 0.00 | 0.99 | 0.00 | 91 | 1013.2 |
| 20260504004559 | 8 | 0 | 0.0 | 3.2 | 0.00 | 1.02 | 0.00 | 90 | 1013.4 |
| 20260504003100 | 8 | 118 | 1.6 | 4.8 | 0.00 | 1.02 | 0.00 | 89 | 1013.6 |
| 20260504001620 | 8 | 94 | 1.6 | 3.2 | 0.00 | 1.02 | 0.00 | 89 | 1013.7 |
| 20260504000110 | 9 | 0 | 0.0 | 1.6 | 0.00 | 1.02 | 0.00 | 88 | 1013.9 |
| 20260503234605 | 9 | 0 | 0.0 | 1.6 | 0.00 | 1.02 | 0.00 | 88 | 1014.1 |
| 20260503233057 | 9 | 0 | 0.0 | 0.0 | 0.00 | 1.02 | 0.00 | 88 | 1014.1 |
| 20260503231559 | 9 | 0 | 0.0 | 1.6 | 0.00 | 1.02 | 0.00 | 87 | 1014.0 |
| 20260503230100 | 9 | 0 | 0.0 | 4.8 | 0.00 | 1.02 | 0.00 | 86 | 1014.0 |
| 20260503224558 | 10 | 144 | 3.2 | 4.8 | 0.00 | 1.02 | 0.00 | 85 | 1014.2 |
| 20260503223103 | 10 | 0 | 0.0 | 0.0 | 0.00 | 1.02 | 0.00 | 82 | 1014.2 |
| 20260503221559 | 10 | 0 | 0.0 | 0.0 | 0.00 | 1.02 | 0.00 | 81 | 1014.2 |
| 20260503214557 | 11 | 0 | 0.0 | 4.8 | 0.00 | 1.02 | 1.02 | 80 | 1014.2 |
| 20260503213111 | 11 | 290 | 1.6 | 4.8 | 0.00 | 1.02 | 1.02 | 79 | 1014.1 |
| 20260503211559 | 11 | 287 | 1.6 | 4.8 | 0.00 | 1.02 | 1.02 | 77 | 1014.1 |
| 20260503210104 | 11 | 220 | 3.2 | 4.8 | 0.00 | 1.02 | 1.02 | 77 | 1014.1 |
| 20260503204601 | 12 | 247 | 0.0 | 4.8 | 0.00 | 1.02 | 1.02 | 76 | 1014.0 |
| 20260503203111 | 12 | 218 | 3.2 | 4.8 | 0.00 | 1.02 | 1.02 | 75 | 1013.7 |
| 20260503201601 | 12 | 220 | 1.6 | 6.4 | 0.00 | 1.02 | 1.02 | 74 | 1013.6 |
| 20260503200105 | 12 | 198 | 4.8 | 9.7 | 0.00 | 1.02 | 1.02 | 72 | 1013.5 |
| 20260503194604 | 12 | 229 | 0.0 | 6.4 | 0.00 | 1.02 | 1.02 | 71 | 1013.2 |
| 20260503193112 | 12 | 0 | 0.0 | 4.8 | 0.00 | 1.02 | 1.02 | 71 | 1013.0 |
| 20260503191609 | 13 | 262 | 3.2 | 9.7 | 0.00 | 1.02 | 1.02 | 69 | 1012.8 |
| 20260503190100 | 13 | 213 | 6.4 | 14.5 | 0.00 | 1.02 | 1.02 | 68 | 1012.7 |
| 20260503184610 | 14 | 233 | 8.0 | 19.3 | 0.00 | 1.02 | 1.02 | 67 | 1012.4 |
| 20260503183111 | 15 | 248 | 12.9 | 20.9 | 0.00 | 1.02 | 1.02 | 65 | 1012.5 |
| 20260503181609 | 15 | 242 | 12.9 | 24.1 | 0.00 | 1.02 | 1.02 | 66 | 1012.4 |
| 20260503180058 | 15 | 224 | 9.7 | 27.4 | 0.00 | 1.02 | 1.02 | 66 | 1012.3 |
| 20260503174558 | 15 | 211 | 12.9 | 27.4 | 0.00 | 1.02 | 1.02 | 64 | 1012.3 |
| 20260503173102 | 15 | 211 | 19.3 | 30.6 | 0.00 | 1.02 | 1.02 | 60 | 1012.1 |
| 20260503090105 | 8 | 181 | 11.3 | 33.8 | 0.56 | 2.21 | 0.58 | 93 | 1015.6 |
| 20260503081628 | 12 | 157 | 3.2 | 11.3 | 0.00 | 1.70 | 0.00 | 90 | 1014.6 |
| 20260503080117 | 12 | 162 | 6.4 | 17.7 | 0.00 | 1.70 | 0.00 | 89 | 1014.9 |
| 20260503071559 | 12 | 178 | 3.2 | 11.3 | 0.00 | 1.70 | 0.00 | 91 | 1014.7 |
| 20260503070107 | 12 | 0 | 0.0 | 11.3 | 0.00 | 1.70 | 0.00 | 93 | 1014.8 |
| 20260503060104 | 11 | 0 | 0.0 | 1.6 | 0.00 | 1.70 | 0.00 | 93 | 1015.1 |
| 20260503054606 | 11 | 0 | 0.0 | 8.0 | 0.00 | 1.70 | 0.00 | 93 | 1015.1 |
| 20260503053059 | 11 | 0 | 0.0 | 9.7 | 0.00 | 1.70 | 0.00 | 94 | 1015.1 |
| 20260503051559 | 11 | 226 | 0.0 | 6.4 | 0.00 | 1.70 | 0.00 | 94 | 1015.0 |
| 20260503050058 | 11 | 144 | 3.2 | 8.0 | 0.00 | 1.70 | 0.00 | 94 | 1015.0 |
| 20260503044610 | 10 | 176 | 1.6 | 4.8 | 0.00 | 1.70 | 0.00 | 94 | 1015.0 |
| 20260503043116 | 10 | 0 | 1.6 | 6.4 | 0.00 | 1.70 | 0.00 | 94 | 1015.0 |
| 20260503041558 | 10 | 261 | 1.6 | 6.4 | 0.00 | 1.70 | 0.00 | 94 | 1015.1 |
| 20260503040100 | 10 | 184 | 0.0 | 6.4 | 0.00 | 1.70 | 0.00 | 94 | 1015.3 |
| 20260503034600 | 10 | 203 | 1.6 | 4.8 | 0.00 | 1.70 | 0.00 | 94 | 1015.5 |
| 20260503033134 | 10 | 205 | 0.0 | 4.8 | 0.00 | 1.70 | 0.00 | 94 | 1015.5 |
| 20260503031602 | 10 | 257 | 0.0 | 4.8 | 0.00 | 1.70 | 0.00 | 94 | 1015.7 |
| 20260503030113 | 10 | 224 | 0.0 | 3.2 | 0.00 | 1.70 | 0.00 | 94 | 1015.6 |